contact:dominique.lefevre@mio.osupytheas.fr, maurice.libes@osupytheas.fr, didier.mallarino@osupytheas.fr
Project:EMSO http://www.emso-fr.org/EMSO-France
Depth: 2436.0 m
Title:EMSO Ligure Ouest : Data MII capteur CSTAR
DateTime,Latitude,Longitude,Instrument_Serial,Reference_Counts,Signal_Counts,Corrected_Signal_raw_counts,Calculated_Beam_c_inverse_meters,Internal_thermistor_counts
DateTime,Latitude,Longitude,Instrument_Serial,Reference_Counts,Signal_Counts,Corrected_Signal_raw_counts,Calculated_Beam_c_inverse_meters,Internal_thermistor_counts
2023-01-13T00:00:36,42.805,6.029,CST-1368DR,4420,4887,11751,01.137,551
2023-01-13T00:03:38,42.805,6.029,CST-1368DR,4420,4888,11754,01.136,551
2023-01-13T00:06:40,42.805,6.029,CST-1368DR,4420,4889,11757,01.135,551
2023-01-13T00:09:41,42.805,6.029,CST-1368DR,4420,4888,11753,01.137,551
2023-01-13T00:12:43,42.805,6.029,CST-1368DR,4420,4885,11747,01.139,551
2023-01-13T00:15:44,42.805,6.029,CST-1368DR,4420,4882,11741,01.141,551
2023-01-13T00:18:46,42.805,6.029,CST-1368DR,4420,4890,11758,01.135,551
2023-01-13T00:21:48,42.805,6.029,CST-1368DR,4420,4889,11756,01.136,551
2023-01-13T00:24:49,42.805,6.029,CST-1368DR,4420,4888,11754,01.136,551
2023-01-13T00:27:51,42.805,6.029,CST-1368DR,4420,4888,11754,01.136,551
2023-01-13T00:30:52,42.805,6.029,CST-1368DR,4420,4889,11756,01.136,551
2023-01-13T00:33:54,42.805,6.029,CST-1368DR,4420,4888,11753,01.137,551
2023-01-13T00:36:55,42.805,6.029,CST-1368DR,4420,4889,11757,01.135,551
2023-01-13T00:39:57,42.805,6.029,CST-1368DR,4420,4881,11738,01.142,551
2023-01-13T00:42:59,42.805,6.029,CST-1368DR,4420,4881,11738,01.142,551
2023-01-13T00:46:00,42.805,6.029,CST-1368DR,4420,4887,11751,01.137,551
2023-01-13T00:49:02,42.805,6.029,CST-1368DR,4420,4887,11752,01.137,551
2023-01-13T00:52:03,42.805,6.029,CST-1368DR,4420,4889,11757,01.135,551
2023-01-13T00:55:05,42.805,6.029,CST-1368DR,4420,4889,11757,01.135,551
2023-01-13T00:58:07,42.805,6.029,CST-1368DR,4420,4888,11755,01.136,551
2023-01-13T01:01:08,42.805,6.029,CST-1368DR,4420,4888,11755,01.136,551
2023-01-13T01:04:10,42.805,6.029,CST-1368DR,4420,4885,11746,01.139,551
2023-01-13T01:07:11,42.805,6.029,CST-1368DR,4420,4886,11750,01.138,551
2023-01-13T01:10:13,42.805,6.029,CST-1368DR,4420,4888,11753,01.137,551
2023-01-13T01:13:14,42.805,6.029,CST-1368DR,4420,4890,11760,01.134,551
2023-01-13T01:16:16,42.805,6.029,CST-1368DR,4420,4882,11739,01.142,551
2023-01-13T01:19:18,42.805,6.029,CST-1368DR,4420,4885,11748,01.138,551
2023-01-13T01:22:19,42.805,6.029,CST-1368DR,4420,4887,11751,01.137,551
2023-01-13T01:25:21,42.805,6.029,CST-1368DR,4420,4881,11738,01.142,551
2023-01-13T01:28:22,42.805,6.029,CST-1368DR,4420,4888,11753,01.137,551
2023-01-13T01:31:24,42.805,6.029,CST-1368DR,4420,4890,11759,01.135,551
2023-01-13T01:34:26,42.805,6.029,CST-1368DR,4420,4882,11740,01.141,551
2023-01-13T01:37:27,42.805,6.029,CST-1368DR,4420,4883,11743,01.140,551
2023-01-13T01:40:29,42.805,6.029,CST-1368DR,4420,4884,11745,01.139,551
2023-01-13T01:43:30,42.805,6.029,CST-1368DR,4420,4890,11760,01.134,551
2023-01-13T01:46:32,42.805,6.029,CST-1368DR,4420,4890,11758,01.135,551
2023-01-13T01:49:34,42.805,6.029,CST-1368DR,4420,4885,11747,01.139,551
2023-01-13T01:52:35,42.805,6.029,CST-1368DR,4420,4889,11756,01.136,551
2023-01-13T01:55:37,42.805,6.029,CST-1368DR,4420,4894,11769,01.131,551
2023-01-13T01:58:38,42.805,6.029,CST-1368DR,4420,4889,11756,01.136,551
2023-01-13T02:01:40,42.805,6.029,CST-1368DR,4420,4891,11760,01.134,551
2023-01-13T02:04:41,42.805,6.029,CST-1368DR,4420,4884,11744,01.140,551
2023-01-13T02:07:43,42.805,6.029,CST-1368DR,4420,4889,11756,01.136,551
2023-01-13T02:10:45,42.805,6.029,CST-1368DR,4420,4891,11761,01.134,551
2023-01-13T02:13:46,42.805,6.029,CST-1368DR,4420,4890,11758,01.135,551
2023-01-13T02:16:48,42.805,6.029,CST-1368DR,4420,4893,11766,01.132,551
2023-01-13T02:19:49,42.805,6.029,CST-1368DR,4420,4890,11758,01.135,551
2023-01-13T02:22:51,42.805,6.029,CST-1368DR,4420,4888,11753,01.137,551
2023-01-13T02:25:53,42.805,6.029,CST-1368DR,4420,4890,11759,01.135,551
2023-01-13T02:28:54,42.805,6.029,CST-1368DR,4420,4887,11751,01.137,551
2023-01-13T02:31:56,42.805,6.029,CST-1368DR,4420,4891,11762,01.134,551
2023-01-13T02:34:57,42.805,6.029,CST-1368DR,4420,4887,11753,01.137,551
2023-01-13T02:37:59,42.805,6.029,CST-1368DR,4420,4889,11757,01.135,551
2023-01-13T02:41:01,42.805,6.029,CST-1368DR,4420,4889,11756,01.136,551
2023-01-13T02:44:02,42.805,6.029,CST-1368DR,4420,4892,11765,01.133,551
2023-01-13T02:47:04,42.805,6.029,CST-1368DR,4420,4887,11751,01.137,551
2023-01-13T02:50:05,42.805,6.029,CST-1368DR,4420,4891,11760,01.134,551
2023-01-13T02:53:07,42.805,6.029,CST-1368DR,4420,4893,11767,01.132,551
2023-01-13T02:56:08,42.805,6.029,CST-1368DR,4420,4889,11757,01.135,551
2023-01-13T02:59:10,42.805,6.029,CST-1368DR,4420,4891,11762,01.134,551
2023-01-13T03:02:12,42.805,6.029,CST-1368DR,4420,4894,11769,01.131,551
2023-01-13T03:05:13,42.805,6.029,CST-1368DR,4420,4891,11762,01.134,551
2023-01-13T03:08:15,42.805,6.029,CST-1368DR,4420,4890,11758,01.135,551
2023-01-13T03:11:16,42.805,6.029,CST-1368DR,4420,4886,11750,01.138,551
2023-01-13T03:14:18,42.805,6.029,CST-1368DR,4420,4889,11757,01.135,551
2023-01-13T03:17:20,42.805,6.029,CST-1368DR,4420,4890,11760,01.134,551
2023-01-13T03:20:21,42.805,6.029,CST-1368DR,4420,4886,11749,01.138,551
2023-01-13T03:23:23,42.805,6.029,CST-1368DR,4420,4888,11755,01.136,551
2023-01-13T03:26:24,42.805,6.029,CST-1368DR,4420,4890,11759,01.135,551
2023-01-13T03:29:26,42.805,6.029,CST-1368DR,4420,4893,11765,01.133,551
2023-01-13T03:32:27,42.805,6.029,CST-1368DR,4419,4882,11741,01.141,551
2023-01-13T03:35:29,42.805,6.029,CST-1368DR,4419,4886,11751,01.137,551
2023-01-13T03:38:31,42.805,6.029,CST-1368DR,4419,4888,11756,01.136,551
2023-01-13T03:41:32,42.805,6.029,CST-1368DR,4419,4889,11759,01.135,551
2023-01-13T03:44:34,42.805,6.029,CST-1368DR,4420,4892,11763,01.133,551
2023-01-13T03:47:35,42.805,6.029,CST-1368DR,4419,4888,11756,01.136,551
2023-01-13T03:50:37,42.805,6.029,CST-1368DR,4420,4891,11760,01.134,551
2023-01-13T03:53:39,42.805,6.029,CST-1368DR,4419,4889,11760,01.134,551
2023-01-13T03:56:40,42.805,6.029,CST-1368DR,4420,4889,11757,01.135,551
2023-01-13T03:59:42,42.805,6.029,CST-1368DR,4420,4890,11758,01.135,551
2023-01-13T04:02:43,42.805,6.029,CST-1368DR,4420,4888,11753,01.137,551
2023-01-13T04:05:45,42.805,6.029,CST-1368DR,4419,4882,11741,01.141,551
2023-01-13T04:08:47,42.805,6.029,CST-1368DR,4419,4888,11756,01.136,551
2023-01-13T04:11:48,42.805,6.029,CST-1368DR,4419,4891,11764,01.133,551
2023-01-13T04:14:50,42.805,6.029,CST-1368DR,4419,4890,11762,01.134,551
2023-01-13T04:17:51,42.805,6.029,CST-1368DR,4420,4889,11756,01.136,551
2023-01-13T04:20:53,42.805,6.029,CST-1368DR,4419,4887,11755,01.136,551
2023-01-13T04:23:54,42.805,6.029,CST-1368DR,4419,4881,11741,01.141,551
2023-01-13T04:26:56,42.805,6.029,CST-1368DR,4419,4887,11755,01.136,551
2023-01-13T04:29:58,42.805,6.029,CST-1368DR,4419,4885,11750,01.138,551
2023-01-13T04:32:59,42.805,6.029,CST-1368DR,4419,4888,11757,01.135,551
2023-01-13T04:36:01,42.805,6.029,CST-1368DR,4419,4879,11735,01.143,551
2023-01-13T04:39:02,42.805,6.029,CST-1368DR,4419,4888,11756,01.136,551
2023-01-13T04:42:04,42.805,6.029,CST-1368DR,4419,4891,11764,01.133,551
2023-01-13T04:45:06,42.805,6.029,CST-1368DR,4419,4890,11762,01.134,551
2023-01-13T04:48:07,42.805,6.029,CST-1368DR,4419,4885,11749,01.138,551
2023-01-13T04:51:09,42.805,6.029,CST-1368DR,4419,4886,11751,01.137,551
2023-01-13T04:54:10,42.805,6.029,CST-1368DR,4419,4888,11756,01.136,551
2023-01-13T04:57:12,42.805,6.029,CST-1368DR,4419,4888,11756,01.136,551
2023-01-13T05:00:13,42.805,6.029,CST-1368DR,4419,4887,11754,01.136,551
2023-01-13T05:03:15,42.805,6.029,CST-1368DR,4419,4888,11756,01.136,551
2023-01-13T05:06:17,42.805,6.029,CST-1368DR,4419,4884,11746,01.139,551
2023-01-13T05:09:18,42.805,6.029,CST-1368DR,4419,4883,11744,01.140,551
2023-01-13T05:12:20,42.805,6.029,CST-1368DR,4419,4888,11756,01.136,551
2023-01-13T05:15:21,42.805,6.029,CST-1368DR,4420,4887,11753,01.137,551
2023-01-13T05:18:23,42.805,6.029,CST-1368DR,4419,4887,11754,01.136,551
2023-01-13T05:21:25,42.805,6.029,CST-1368DR,4419,4888,11756,01.136,551
2023-01-13T05:24:26,42.805,6.029,CST-1368DR,4419,4884,11747,01.139,551
2023-01-13T05:27:28,42.805,6.029,CST-1368DR,4419,4889,11758,01.135,551
2023-01-13T05:30:29,42.805,6.029,CST-1368DR,4419,4867,11707,01.152,551
2023-01-13T05:33:31,42.805,6.029,CST-1368DR,4419,4867,11706,01.153,551
2023-01-13T05:36:32,42.805,6.029,CST-1368DR,4419,4868,11709,01.152,551
2023-01-13T05:39:34,42.805,6.029,CST-1368DR,4419,4871,11715,01.150,551
2023-01-13T05:42:36,42.805,6.029,CST-1368DR,4419,4872,11718,01.149,551
2023-01-13T05:45:37,42.805,6.029,CST-1368DR,4419,4867,11705,01.153,551
2023-01-13T05:48:39,42.805,6.029,CST-1368DR,4419,4868,11709,01.152,551
2023-01-13T05:51:40,42.805,6.029,CST-1368DR,4419,4871,11715,01.150,551
2023-01-13T05:54:42,42.805,6.029,CST-1368DR,4419,4874,11722,01.147,551
2023-01-13T05:57:44,42.805,6.029,CST-1368DR,4419,4867,11705,01.153,551
2023-01-13T06:00:45,42.805,6.029,CST-1368DR,4419,4876,11727,01.146,551
2023-01-13T06:03:47,42.805,6.029,CST-1368DR,4419,4872,11718,01.149,551
2023-01-13T06:06:48,42.805,6.029,CST-1368DR,4419,4873,11721,01.148,551
2023-01-13T06:09:50,42.805,6.029,CST-1368DR,4419,4868,11708,01.152,551
2023-01-13T06:12:51,42.805,6.029,CST-1368DR,4419,4872,11718,01.149,551
2023-01-13T06:15:53,42.805,6.029,CST-1368DR,4419,4870,11714,01.150,551
2023-01-13T06:18:55,42.805,6.029,CST-1368DR,4419,4869,11711,01.151,551
2023-01-13T06:21:56,42.805,6.029,CST-1368DR,4419,4868,11708,01.152,551
2023-01-13T06:24:58,42.805,6.029,CST-1368DR,4419,4872,11719,01.148,551
2023-01-13T06:27:59,42.805,6.029,CST-1368DR,4419,4870,11713,01.150,551
2023-01-13T06:31:01,42.805,6.029,CST-1368DR,4419,4873,11721,01.148,551
2023-01-13T06:34:03,42.805,6.029,CST-1368DR,4419,4871,11715,01.150,551
2023-01-13T06:37:04,42.805,6.029,CST-1368DR,4419,4872,11718,01.149,551
2023-01-13T06:40:06,42.805,6.029,CST-1368DR,4419,4875,11726,01.146,551
2023-01-13T06:43:07,42.805,6.029,CST-1368DR,4419,4872,11718,01.149,551
2023-01-13T06:46:09,42.805,6.029,CST-1368DR,4419,4869,11710,01.151,551
2023-01-13T06:49:11,42.805,6.029,CST-1368DR,4419,4876,11727,01.146,551
2023-01-13T06:52:12,42.805,6.029,CST-1368DR,4419,4871,11716,01.149,551
2023-01-13T06:55:14,42.805,6.029,CST-1368DR,4419,4874,11723,01.147,551
2023-01-13T06:58:15,42.805,6.029,CST-1368DR,4419,4874,11723,01.147,551
2023-01-13T07:01:17,42.805,6.029,CST-1368DR,4419,4872,11718,01.149,551
2023-01-13T07:04:18,42.805,6.029,CST-1368DR,4419,4879,11735,01.143,551
2023-01-13T07:07:20,42.805,6.029,CST-1368DR,4419,4876,11727,01.146,551
2023-01-13T07:10:22,42.805,6.029,CST-1368DR,4419,4877,11729,01.145,551
2023-01-13T07:13:23,42.805,6.029,CST-1368DR,4419,4874,11724,01.147,551
2023-01-13T07:16:25,42.805,6.029,CST-1368DR,4419,4874,11723,01.147,551
2023-01-13T07:19:26,42.805,6.029,CST-1368DR,4419,4875,11724,01.147,551
2023-01-13T07:22:28,42.805,6.029,CST-1368DR,4419,4875,11726,01.146,551
2023-01-13T07:25:30,42.805,6.029,CST-1368DR,4419,4874,11723,01.147,551
2023-01-13T07:28:31,42.805,6.029,CST-1368DR,4419,4871,11715,01.150,551
2023-01-13T07:31:33,42.805,6.029,CST-1368DR,4419,4870,11713,01.150,551
2023-01-13T07:34:34,42.805,6.029,CST-1368DR,4419,4873,11721,01.148,551
2023-01-13T07:37:36,42.805,6.029,CST-1368DR,4419,4869,11710,01.151,551
2023-01-13T07:40:37,42.805,6.029,CST-1368DR,4419,4869,11712,01.151,551
2023-01-13T07:43:39,42.805,6.029,CST-1368DR,4419,4869,11712,01.151,551
2023-01-13T07:46:41,42.805,6.029,CST-1368DR,4419,4870,11714,01.150,551
2023-01-13T07:49:42,42.805,6.029,CST-1368DR,4419,4872,11717,01.149,551
2023-01-13T07:52:44,42.805,6.029,CST-1368DR,4419,4870,11714,01.150,551
2023-01-13T07:55:45,42.805,6.029,CST-1368DR,4419,4868,11709,01.152,551
2023-01-13T07:58:47,42.805,6.029,CST-1368DR,4419,4871,11716,01.149,551
2023-01-13T08:01:49,42.805,6.029,CST-1368DR,4419,4871,11717,01.149,551
2023-01-13T08:04:50,42.805,6.029,CST-1368DR,4419,4870,11714,01.150,551
2023-01-13T08:07:52,42.805,6.029,CST-1368DR,4419,4874,11724,01.147,551
2023-01-13T08:10:53,42.805,6.029,CST-1368DR,4419,4873,11721,01.148,551
2023-01-13T08:13:55,42.805,6.029,CST-1368DR,4419,4872,11717,01.149,551
2023-01-13T08:16:57,42.805,6.029,CST-1368DR,4419,4874,11724,01.147,551
2023-01-13T08:19:58,42.805,6.029,CST-1368DR,4419,4871,11716,01.149,551
2023-01-13T08:23:00,42.805,6.029,CST-1368DR,4419,4871,11715,01.150,551
2023-01-13T08:26:01,42.805,6.029,CST-1368DR,4419,4872,11718,01.149,551
2023-01-13T08:29:03,42.805,6.029,CST-1368DR,4419,4870,11714,01.150,551
2023-01-13T08:32:04,42.805,6.029,CST-1368DR,4419,4872,11717,01.149,551
2023-01-13T08:35:06,42.805,6.029,CST-1368DR,4419,4871,11715,01.150,551
2023-01-13T08:38:08,42.805,6.029,CST-1368DR,4419,4870,11714,01.150,551
2023-01-13T08:41:09,42.805,6.029,CST-1368DR,4419,4868,11709,01.152,551
2023-01-13T08:44:11,42.805,6.029,CST-1368DR,4419,4872,11717,01.149,551
2023-01-13T08:47:12,42.805,6.029,CST-1368DR,4419,4869,11712,01.151,551
2023-01-13T08:50:14,42.805,6.029,CST-1368DR,4419,4874,11724,01.147,551
2023-01-13T08:53:16,42.805,6.029,CST-1368DR,4419,4870,11713,01.150,551
2023-01-13T08:56:17,42.805,6.029,CST-1368DR,4419,4869,11711,01.151,551
2023-01-13T08:59:19,42.805,6.029,CST-1368DR,4419,4869,11712,01.151,551
2023-01-13T09:02:20,42.805,6.029,CST-1368DR,4419,4869,11712,01.151,551
2023-01-13T09:05:22,42.805,6.029,CST-1368DR,4419,4869,11712,01.151,551
2023-01-13T09:08:24,42.805,6.029,CST-1368DR,4419,4868,11709,01.152,551
2023-01-13T09:11:25,42.805,6.029,CST-1368DR,4419,4866,11703,01.154,551
2023-01-13T09:14:27,42.805,6.029,CST-1368DR,4419,4870,11714,01.150,551
2023-01-13T09:17:28,42.805,6.029,CST-1368DR,4419,4868,11708,01.152,551
2023-01-13T09:20:30,42.805,6.029,CST-1368DR,4419,4874,11723,01.147,551
2023-01-13T09:23:31,42.805,6.029,CST-1368DR,4419,4872,11717,01.149,551
2023-01-13T09:26:33,42.805,6.029,CST-1368DR,4419,4871,11715,01.150,551
2023-01-13T09:29:35,42.805,6.029,CST-1368DR,4419,4871,11716,01.149,551
2023-01-13T09:32:36,42.805,6.029,CST-1368DR,4419,4870,11713,01.150,551
2023-01-13T09:35:38,42.805,6.029,CST-1368DR,4419,4868,11709,01.152,551
2023-01-13T09:38:39,42.805,6.029,CST-1368DR,4419,4869,11710,01.151,551
2023-01-13T09:41:41,42.805,6.029,CST-1368DR,4419,4871,11717,01.149,551
2023-01-13T09:44:43,42.805,6.029,CST-1368DR,4419,4869,11710,01.151,551
2023-01-13T09:47:44,42.805,6.029,CST-1368DR,4419,4867,11706,01.153,551
2023-01-13T09:50:46,42.805,6.029,CST-1368DR,4419,4868,11709,01.152,551
2023-01-13T09:53:47,42.805,6.029,CST-1368DR,4419,4866,11703,01.154,551
2023-01-13T09:56:49,42.805,6.029,CST-1368DR,4419,4865,11702,01.154,551
2023-01-13T09:59:50,42.805,6.029,CST-1368DR,4419,4870,11714,01.150,551
2023-01-13T10:02:52,42.805,6.029,CST-1368DR,4419,4870,11713,01.150,551
2023-01-13T10:05:54,42.805,6.029,CST-1368DR,4419,4872,11718,01.149,551
2023-01-13T10:08:55,42.805,6.029,CST-1368DR,4419,4871,11715,01.150,551
2023-01-13T10:11:57,42.805,6.029,CST-1368DR,4419,4869,11710,01.151,551
2023-01-13T10:14:58,42.805,6.029,CST-1368DR,4419,4867,11706,01.153,551
2023-01-13T10:18:00,42.805,6.029,CST-1368DR,4419,4868,11708,01.152,551
2023-01-13T10:21:02,42.805,6.029,CST-1368DR,4419,4868,11708,01.152,551
2023-01-13T10:24:03,42.805,6.029,CST-1368DR,4419,4866,11705,01.153,551
2023-01-13T10:27:05,42.805,6.029,CST-1368DR,4419,4863,11697,01.156,551
2023-01-13T10:30:06,42.805,6.029,CST-1368DR,4419,4865,11702,01.154,551
2023-01-13T10:33:08,42.805,6.029,CST-1368DR,4419,4866,11703,01.154,551
2023-01-13T10:36:10,42.805,6.029,CST-1368DR,4419,4864,11700,01.155,551
2023-01-13T10:39:11,42.805,6.029,CST-1368DR,4419,4864,11699,01.155,551
2023-01-13T10:42:13,42.805,6.029,CST-1368DR,4419,4864,11700,01.155,551
2023-01-13T10:45:14,42.805,6.029,CST-1368DR,4419,4863,11697,01.156,551
2023-01-13T10:48:16,42.805,6.029,CST-1368DR,4419,4863,11697,01.156,551
2023-01-13T10:51:17,42.805,6.029,CST-1368DR,4419,4865,11702,01.154,551
2023-01-13T10:54:19,42.805,6.029,CST-1368DR,4419,4862,11693,01.157,551
2023-01-13T10:57:21,42.805,6.029,CST-1368DR,4419,4862,11694,01.157,551
2023-01-13T11:00:22,42.805,6.029,CST-1368DR,4419,4867,11705,01.153,551
2023-01-13T11:03:24,42.805,6.029,CST-1368DR,4419,4863,11697,01.156,551
2023-01-13T11:06:25,42.805,6.029,CST-1368DR,4419,4863,11696,01.156,551
2023-01-13T11:09:27,42.805,6.029,CST-1368DR,4419,4865,11702,01.154,551
2023-01-13T11:12:29,42.805,6.029,CST-1368DR,4419,4864,11700,01.155,551
2023-01-13T11:15:30,42.805,6.029,CST-1368DR,4419,4865,11701,01.154,551
2023-01-13T11:18:32,42.805,6.029,CST-1368DR,4419,4864,11699,01.155,551
2023-01-13T11:21:33,42.805,6.029,CST-1368DR,4419,4867,11706,01.153,551
2023-01-13T11:24:35,42.805,6.029,CST-1368DR,4419,4867,11706,01.153,551
2023-01-13T11:27:36,42.805,6.029,CST-1368DR,4419,4866,11703,01.154,551
2023-01-13T11:30:38,42.805,6.029,CST-1368DR,4419,4865,11702,01.154,551
2023-01-13T11:33:40,42.805,6.029,CST-1368DR,4419,4866,11703,01.154,551
2023-01-13T11:36:41,42.805,6.029,CST-1368DR,4419,4866,11703,01.154,551
2023-01-13T11:39:43,42.805,6.029,CST-1368DR,4419,4870,11714,01.150,551
2023-01-13T11:42:44,42.805,6.029,CST-1368DR,4419,4872,11718,01.149,551
2023-01-13T11:45:46,42.805,6.029,CST-1368DR,4419,4869,11711,01.151,551
2023-01-13T11:48:48,42.805,6.029,CST-1368DR,4419,4865,11702,01.154,551
2023-01-13T11:51:49,42.805,6.029,CST-1368DR,4419,4870,11714,01.150,551
2023-01-13T11:54:51,42.805,6.029,CST-1368DR,4419,4867,11706,01.153,551
2023-01-13T11:57:52,42.805,6.029,CST-1368DR,4419,4868,11709,01.152,551
2023-01-13T12:00:54,42.805,6.029,CST-1368DR,4419,4868,11708,01.152,551
2023-01-13T12:03:56,42.805,6.029,CST-1368DR,4419,4868,11709,01.152,551
2023-01-13T12:06:57,42.805,6.029,CST-1368DR,4419,4870,11713,01.150,551
2023-01-13T12:09:59,42.805,6.029,CST-1368DR,4419,4867,11707,01.152,551
2023-01-13T12:13:00,42.805,6.029,CST-1368DR,4419,4867,11705,01.153,551
2023-01-13T12:16:02,42.805,6.029,CST-1368DR,4419,4867,11707,01.152,551
2023-01-13T12:19:03,42.805,6.029,CST-1368DR,4419,4868,11708,01.152,551
2023-01-13T12:22:05,42.805,6.029,CST-1368DR,4419,4870,11714,01.150,551
2023-01-13T12:25:07,42.805,6.029,CST-1368DR,4419,4871,11715,01.150,551
2023-01-13T12:28:08,42.805,6.029,CST-1368DR,4419,4868,11709,01.152,551
2023-01-13T12:31:10,42.805,6.029,CST-1368DR,4419,4871,11715,01.150,551
2023-01-13T12:34:11,42.805,6.029,CST-1368DR,4419,4867,11705,01.153,551
2023-01-13T12:37:13,42.805,6.029,CST-1368DR,4419,4869,11710,01.151,551
2023-01-13T12:40:15,42.805,6.029,CST-1368DR,4419,4869,11711,01.151,551
2023-01-13T12:43:16,42.805,6.029,CST-1368DR,4419,4867,11706,01.153,551
2023-01-13T12:46:18,42.805,6.029,CST-1368DR,4419,4868,11708,01.152,551
2023-01-13T12:49:19,42.805,6.029,CST-1368DR,4419,4871,11715,01.150,551
2023-01-13T12:52:21,42.805,6.029,CST-1368DR,4419,4872,11719,01.148,551
2023-01-13T12:55:22,42.805,6.029,CST-1368DR,4419,4869,11710,01.151,551
2023-01-13T12:58:24,42.805,6.029,CST-1368DR,4419,4867,11706,01.153,551
2023-01-13T13:01:26,42.805,6.029,CST-1368DR,4419,4870,11713,01.150,551
2023-01-13T13:04:27,42.805,6.029,CST-1368DR,4419,4868,11708,01.152,551
2023-01-13T13:07:29,42.805,6.029,CST-1368DR,4419,4872,11718,01.149,551
2023-01-13T13:10:30,42.805,6.029,CST-1368DR,4419,4869,11712,01.151,551
2023-01-13T13:13:32,42.805,6.029,CST-1368DR,4419,4865,11701,01.154,551
2023-01-13T13:16:34,42.805,6.029,CST-1368DR,4419,4871,11716,01.149,551
2023-01-13T13:19:35,42.805,6.029,CST-1368DR,4419,4869,11712,01.151,551
2023-01-13T13:22:37,42.805,6.029,CST-1368DR,4419,4878,11733,01.144,551
2023-01-13T13:25:38,42.805,6.029,CST-1368DR,4419,4871,11715,01.150,551
2023-01-13T13:28:40,42.805,6.029,CST-1368DR,4419,4869,11711,01.151,551
2023-01-13T13:31:41,42.805,6.029,CST-1368DR,4419,4867,11706,01.153,551
2023-01-13T13:34:43,42.805,6.029,CST-1368DR,4419,4871,11716,01.149,551
2023-01-13T13:37:45,42.805,6.029,CST-1368DR,4419,4877,11731,01.144,551
2023-01-13T13:40:46,42.805,6.029,CST-1368DR,4419,4867,11706,01.153,551
2023-01-13T13:43:48,42.805,6.029,CST-1368DR,4419,4869,11710,01.151,551
2023-01-13T13:46:49,42.805,6.029,CST-1368DR,4419,4865,11702,01.154,551
2023-01-13T13:49:51,42.805,6.029,CST-1368DR,4419,4867,11707,01.152,551
2023-01-13T13:52:53,42.805,6.029,CST-1368DR,4419,4879,11734,01.143,551
2023-01-13T13:55:54,42.805,6.029,CST-1368DR,4419,4881,11740,01.141,551
2023-01-13T13:58:56,42.805,6.029,CST-1368DR,4419,4868,11709,01.152,551
2023-01-13T14:01:57,42.805,6.029,CST-1368DR,4419,4868,11709,01.152,551
2023-01-13T14:04:59,42.805,6.029,CST-1368DR,4419,4877,11730,01.145,551
2023-01-13T14:08:01,42.805,6.029,CST-1368DR,4419,4880,11737,01.142,551
2023-01-13T14:11:02,42.805,6.029,CST-1368DR,4419,4875,11726,01.146,551
2023-01-13T14:14:04,42.805,6.029,CST-1368DR,4419,4881,11740,01.141,551
2023-01-13T14:17:05,42.805,6.029,CST-1368DR,4419,4875,11724,01.147,551
2023-01-13T14:20:07,42.805,6.029,CST-1368DR,4419,4872,11718,01.149,551
2023-01-13T14:23:08,42.805,6.029,CST-1368DR,4419,4874,11722,01.147,551
2023-01-13T14:26:10,42.805,6.029,CST-1368DR,4419,4872,11718,01.149,551
2023-01-13T14:29:12,42.805,6.029,CST-1368DR,4419,4875,11725,01.146,551
2023-01-13T14:32:13,42.805,6.029,CST-1368DR,4419,4871,11715,01.150,551
2023-01-13T14:35:15,42.805,6.029,CST-1368DR,4419,4869,11711,01.151,551
2023-01-13T14:38:16,42.805,6.029,CST-1368DR,4419,4875,11724,01.147,551
2023-01-13T14:41:18,42.805,6.029,CST-1368DR,4419,4871,11716,01.149,551
2023-01-13T14:44:20,42.805,6.029,CST-1368DR,4419,4876,11727,01.146,551
2023-01-13T14:47:21,42.805,6.029,CST-1368DR,4419,4871,11715,01.150,551
2023-01-13T14:50:23,42.805,6.029,CST-1368DR,4419,4875,11725,01.146,551
2023-01-13T14:53:24,42.805,6.029,CST-1368DR,4419,4882,11743,01.140,551
2023-01-13T14:56:26,42.805,6.029,CST-1368DR,4419,4873,11721,01.148,551
2023-01-13T14:59:27,42.805,6.029,CST-1368DR,4419,4877,11730,01.145,551
2023-01-13T15:02:29,42.805,6.029,CST-1368DR,4419,4871,11716,01.149,551
2023-01-13T15:05:31,42.805,6.029,CST-1368DR,4419,4869,11712,01.151,551
2023-01-13T15:08:32,42.805,6.029,CST-1368DR,4419,4868,11709,01.152,551
2023-01-13T15:11:34,42.805,6.029,CST-1368DR,4419,4874,11723,01.147,551
2023-01-13T15:14:35,42.805,6.029,CST-1368DR,4419,4875,11724,01.147,551
2023-01-13T15:17:37,42.805,6.029,CST-1368DR,4419,4870,11714,01.150,551
2023-01-13T15:20:39,42.805,6.029,CST-1368DR,4419,4869,11711,01.151,551
2023-01-13T15:23:40,42.805,6.029,CST-1368DR,4419,4876,11727,01.146,551
2023-01-13T15:26:42,42.805,6.029,CST-1368DR,4419,4873,11720,01.148,551
2023-01-13T15:29:43,42.805,6.029,CST-1368DR,4419,4874,11723,01.147,551
2023-01-13T15:32:45,42.805,6.029,CST-1368DR,4419,4873,11720,01.148,551
2023-01-13T15:35:46,42.805,6.029,CST-1368DR,4419,4869,11711,01.151,551
2023-01-13T15:38:48,42.805,6.029,CST-1368DR,4419,4866,11703,01.154,551
2023-01-13T15:41:50,42.805,6.029,CST-1368DR,4419,4867,11706,01.153,551
2023-01-13T15:44:51,42.805,6.029,CST-1368DR,4419,4870,11714,01.150,551
2023-01-13T15:47:53,42.805,6.029,CST-1368DR,4419,4874,11724,01.147,551
2023-01-13T15:50:54,42.805,6.029,CST-1368DR,4419,4875,11725,01.146,551
2023-01-13T15:53:56,42.805,6.029,CST-1368DR,4419,4873,11721,01.148,551
2023-01-13T15:56:58,42.805,6.029,CST-1368DR,4419,4874,11723,01.147,551
2023-01-13T15:59:59,42.805,6.029,CST-1368DR,4419,4875,11724,01.147,551
2023-01-13T16:03:01,42.805,6.029,CST-1368DR,4419,4872,11719,01.148,551
2023-01-13T16:06:02,42.805,6.029,CST-1368DR,4419,4874,11724,01.147,551
2023-01-13T16:09:04,42.805,6.029,CST-1368DR,4419,4868,11708,01.152,551
2023-01-13T16:12:05,42.805,6.029,CST-1368DR,4419,4868,11709,01.152,551
2023-01-13T16:15:07,42.805,6.029,CST-1368DR,4419,4868,11708,01.152,551
2023-01-13T16:18:09,42.805,6.029,CST-1368DR,4419,4882,11743,01.140,551
2023-01-13T16:21:10,42.805,6.029,CST-1368DR,4419,4871,11715,01.150,551
2023-01-13T16:24:12,42.805,6.029,CST-1368DR,4419,4871,11715,01.150,551
2023-01-13T16:27:13,42.805,6.029,CST-1368DR,4419,4866,11705,01.153,551
2023-01-13T16:30:15,42.805,6.029,CST-1368DR,4419,4873,11721,01.148,551
2023-01-13T16:33:17,42.805,6.029,CST-1368DR,4419,4876,11727,01.146,551
2023-01-13T16:36:18,42.805,6.029,CST-1368DR,4419,4870,11713,01.150,551